| time (UTC) | temp C | wind direction | speed KPH | gust KPH | rain 1hr cm | rain 24hr cm | rain mn cm | humidity % | barometer mb |
| 20260507050050 | 12 | 0 | 0.0 | 4.8 | 0.00 | 0.36 | 0.00 | 96 | 1008.4 |
| 20260507044601 | 12 | 0 | 0.0 | 4.8 | 0.00 | 0.36 | 0.00 | 97 | 1008.3 |
| 20260507043051 | 12 | 0 | 0.0 | 3.2 | 0.00 | 0.36 | 0.00 | 97 | 1008.2 |
| 20260507041552 | 12 | 51 | 0.0 | 3.2 | 0.00 | 0.36 | 0.00 | 96 | 1008.3 |
| 20260507040058 | 13 | 0 | 1.6 | 3.2 | 0.03 | 0.36 | 0.00 | 97 | 1008.1 |
| 20260507034556 | 13 | 0 | 0.0 | 4.8 | 0.03 | 0.36 | 0.36 | 97 | 1008.1 |
| 20260507033102 | 13 | 0 | 0.0 | 4.8 | 0.03 | 0.36 | 0.36 | 97 | 1007.8 |
| 20260507031600 | 13 | 0 | 0.0 | 3.2 | 0.03 | 0.36 | 0.36 | 97 | 1007.5 |
| 20260507030107 | 14 | 0 | 0.0 | 4.8 | 0.00 | 0.33 | 0.33 | 97 | 1007.4 |
| 20260507024608 | 14 | 266 | 0.0 | 1.6 | 0.00 | 0.33 | 0.33 | 97 | 1007.1 |
| 20260507023053 | 14 | 266 | 0.0 | 8.0 | 0.00 | 0.33 | 0.33 | 97 | 1007.2 |
| 20260507021557 | 14 | 0 | 0.0 | 8.0 | 0.00 | 0.33 | 0.33 | 97 | 1007.1 |
| 20260507014605 | 14 | 0 | 1.6 | 6.4 | 0.00 | 0.33 | 0.33 | 97 | 1007.0 |
| 20260507013102 | 14 | 15 | 0.0 | 4.8 | 0.00 | 0.33 | 0.33 | 97 | 1007.0 |
| 20260507011557 | 14 | 50 | 0.0 | 6.4 | 0.00 | 0.33 | 0.33 | 97 | 1007.2 |
| 20260507010059 | 14 | 302 | 1.6 | 9.7 | 0.00 | 0.33 | 0.33 | 97 | 1007.2 |
| 20260507004552 | 14 | 348 | 1.6 | 11.3 | 0.00 | 0.33 | 0.33 | 97 | 1007.1 |
| 20260507003104 | 14 | 5 | 1.6 | 12.9 | 0.00 | 0.33 | 0.33 | 97 | 1007.2 |
| 20260507001602 | 14 | 49 | 1.6 | 6.4 | 0.03 | 0.33 | 0.33 | 97 | 1007.0 |
| 20260507000053 | 14 | 40 | 3.2 | 9.7 | 0.05 | 0.33 | 0.33 | 97 | 1007.1 |
| 20260506234604 | 14 | 0 | 3.2 | 11.3 | 0.13 | 0.33 | 0.33 | 97 | 1007.1 |
| 20260506233058 | 14 | 11 | 1.6 | 11.3 | 0.13 | 0.33 | 0.33 | 96 | 1007.0 |
| 20260506231557 | 14 | 24 | 1.6 | 8.0 | 0.10 | 0.30 | 0.30 | 96 | 1007.0 |
| 20260506230059 | 14 | 16 | 3.2 | 14.5 | 0.10 | 0.28 | 0.28 | 96 | 1007.0 |
| 20260506224559 | 14 | 12 | 1.6 | 9.7 | 0.03 | 0.20 | 0.20 | 96 | 1007.2 |
| 20260506223051 | 14 | 69 | 3.2 | 6.4 | 0.03 | 0.20 | 0.20 | 96 | 1007.2 |
| 20260506221553 | 15 | 49 | 1.6 | 8.0 | 0.03 | 0.20 | 0.20 | 95 | 1007.2 |
| 20260506220054 | 15 | 336 | 1.6 | 14.5 | 0.00 | 0.18 | 0.18 | 95 | 1007.3 |
| 20260506214551 | 15 | 19 | 1.6 | 12.9 | 0.03 | 0.18 | 0.18 | 95 | 1007.5 |
| 20260506213051 | 15 | 0 | 1.6 | 14.5 | 0.03 | 0.18 | 0.18 | 95 | 1007.6 |
| 20260506211554 | 15 | 323 | 3.2 | 16.1 | 0.05 | 0.18 | 0.18 | 94 | 1007.7 |
| 20260506210055 | 15 | 22 | 3.2 | 16.1 | 0.08 | 0.18 | 0.18 | 94 | 1007.9 |
| 20260506204553 | 15 | 89 | 3.2 | 11.3 | 0.05 | 0.15 | 0.15 | 94 | 1008.0 |
| 20260506203052 | 15 | 21 | 1.6 | 16.1 | 0.05 | 0.15 | 0.15 | 94 | 1008.0 |
| 20260506201556 | 15 | 51 | 3.2 | 14.5 | 0.08 | 0.13 | 0.13 | 93 | 1008.0 |
| 20260506200051 | 15 | 41 | 6.4 | 17.7 | 0.08 | 0.10 | 0.10 | 91 | 1007.9 |
| 20260506194552 | 16 | 328 | 3.2 | 9.7 | 0.10 | 0.10 | 0.10 | 92 | 1007.9 |
| 20260506193054 | 16 | 29 | 3.2 | 14.5 | 0.10 | 0.10 | 0.10 | 90 | 1008.2 |
| 20260506191552 | 16 | 0 | 1.6 | 4.8 | 0.05 | 0.05 | 0.05 | 89 | 1008.1 |
| 20260506190058 | 17 | 70 | 1.6 | 9.7 | 0.03 | 0.03 | 0.03 | 86 | 1008.0 |
| 20260506184554 | 17 | 0 | 1.6 | 6.4 | 0.00 | 0.00 | 0.00 | 82 | 1008.3 |
| 20260506183100 | 18 | 306 | 3.2 | 12.9 | 0.00 | 0.00 | 0.00 | 76 | 1008.5 |
| 20260506181555 | 19 | 332 | 4.8 | 22.5 | 0.00 | 0.00 | 0.00 | 73 | 1008.6 |
| 20260506180051 | 21 | 194 | 1.6 | 14.5 | 0.00 | 0.00 | 0.00 | 65 | 1008.5 |
| 20260506174555 | 21 | 119 | 3.2 | 14.5 | 0.00 | 0.00 | 0.00 | 61 | 1008.7 |
| 20260506173123 | 21 | 24 | 6.4 | 20.9 | 0.00 | 0.00 | 0.00 | 60 | 1008.6 |
| 20260506171602 | 22 | 34 | 3.2 | 11.3 | 0.00 | 0.00 | 0.00 | 59 | 1008.7 |
| 20260506170055 | 22 | 82 | 6.4 | 22.5 | 0.00 | 0.00 | 0.00 | 59 | 1009.0 |
| 20260506164556 | 21 | 360 | 4.8 | 22.5 | 0.00 | 0.00 | 0.00 | 61 | 1008.8 |
| 20260506163106 | 21 | 350 | 1.6 | 27.4 | 0.00 | 0.00 | 0.00 | 64 | 1009.1 |
| 20260506161622 | 21 | 9 | 4.8 | 27.4 | 0.00 | 0.00 | 0.00 | 64 | 1009.2 |
| 20260506160058 | 21 | 290 | 6.4 | 14.5 | 0.00 | 0.00 | 0.00 | 64 | 1009.6 |
| 20260506154600 | 20 | 103 | 3.2 | 17.7 | 0.00 | 0.00 | 0.00 | 66 | 1009.9 |
| 20260506153059 | 20 | 301 | 3.2 | 20.9 | 0.00 | 0.00 | 0.00 | 66 | 1009.9 |
| 20260506151555 | 20 | 281 | 1.6 | 19.3 | 0.00 | 0.00 | 0.00 | 67 | 1010.2 |
| 20260506150052 | 20 | 337 | 4.8 | 16.1 | 0.00 | 0.00 | 0.00 | 68 | 1010.3 |
| 20260506144552 | 20 | 82 | 4.8 | 20.9 | 0.00 | 0.00 | 0.00 | 70 | 1010.5 |
| 20260506143054 | 19 | 352 | 6.4 | 24.1 | 0.00 | 0.00 | 0.00 | 71 | 1010.4 |
| 20260506141556 | 19 | 44 | 8.0 | 17.7 | 0.00 | 0.00 | 0.00 | 71 | 1010.3 |
| 20260506140052 | 19 | 11 | 4.8 | 20.9 | 0.00 | 0.00 | 0.00 | 72 | 1010.1 |
| 20260506134552 | 19 | 63 | 3.2 | 20.9 | 0.00 | 0.00 | 0.00 | 73 | 1010.5 |
| 20260506133053 | 18 | 21 | 6.4 | 19.3 | 0.00 | 0.00 | 0.00 | 75 | 1010.6 |
| 20260506131601 | 18 | 50 | 4.8 | 19.3 | 0.00 | 0.00 | 0.00 | 76 | 1010.9 |
| 20260506124557 | 17 | 39 | 6.4 | 20.9 | 0.00 | 0.00 | 0.00 | 76 | 1010.9 |
| 20260506123054 | 17 | 13 | 3.2 | 17.7 | 0.00 | 0.00 | 0.00 | 77 | 1010.7 |
| 20260506121554 | 16 | 56 | 3.2 | 16.1 | 0.00 | 0.00 | 0.00 | 80 | 1011.0 |
| 20260506120056 | 16 | 360 | 3.2 | 17.7 | 0.00 | 0.00 | 0.00 | 80 | 1010.8 |
| 20260506114550 | 15 | 5 | 3.2 | 12.9 | 0.00 | 0.00 | 0.00 | 83 | 1011.0 |
| 20260506113056 | 15 | 19 | 6.4 | 16.1 | 0.00 | 0.00 | 0.00 | 83 | 1011.2 |
| 20260506111552 | 15 | 53 | 1.6 | 17.7 | 0.00 | 0.00 | 0.00 | 83 | 1011.6 |
| 20260506110100 | 15 | 43 | 3.2 | 12.9 | 0.00 | 0.00 | 0.00 | 84 | 1011.2 |
| 20260506104556 | 14 | 44 | 3.2 | 12.9 | 0.00 | 0.00 | 0.00 | 85 | 1011.3 |
| 20260506103056 | 14 | 60 | 4.8 | 17.7 | 0.00 | 0.00 | 0.00 | 86 | 1011.2 |
| 20260506101600 | 14 | 51 | 1.6 | 9.7 | 0.00 | 0.00 | 0.00 | 85 | 1011.3 |
| 20260506100114 | 14 | 360 | 3.2 | 8.0 | 0.00 | 0.00 | 0.00 | 85 | 1011.2 |
| 20260506094610 | 14 | 5 | 3.2 | 11.3 | 0.00 | 0.00 | 0.00 | 85 | 1011.2 |
| 20260506093100 | 14 | 53 | 3.2 | 9.7 | 0.00 | 0.00 | 0.00 | 84 | 1011.0 |
| 20260506091559 | 14 | 352 | 3.2 | 9.7 | 0.00 | 0.00 | 0.00 | 83 | 1011.2 |
| 20260506090056 | 14 | 5 | 3.2 | 6.4 | 0.00 | 0.00 | 0.00 | 83 | 1011.2 |
| 20260506084621 | 14 | 83 | 1.6 | 8.0 | 0.00 | 0.00 | 0.00 | 82 | 1011.3 |
| 20260506083056 | 15 | 360 | 3.2 | 12.9 | 0.00 | 0.00 | 0.00 | 81 | 1011.4 |
| 20260506081557 | 15 | 30 | 3.2 | 12.9 | 0.00 | 0.00 | 0.00 | 80 | 1011.3 |
| 20260506073056 | 15 | 350 | 3.2 | 12.9 | 0.00 | 0.00 | 0.00 | 78 | 1011.0 |
| 20260506071559 | 16 | 66 | 4.8 | 14.5 | 0.00 | 0.00 | 0.00 | 77 | 1010.9 |
| 20260506070156 | 16 | 349 | 3.2 | 16.1 | 0.00 | 0.00 | 0.00 | 76 | 1010.7 |
| 20260506061554 | 16 | 30 | 3.2 | 12.9 | 0.00 | 0.00 | 0.00 | 73 | 1010.7 |